#timestamp,LO_Frequency,Hit 
1505415615.3,286047001.2,N
1505415635.1,286047000.7,N
1505415655.9,286047003.4,N
1505415675.7,286047005.0,N
1505415695.5,286047007.3,N
1505415715.4,286047009.9,N
1505415735.2,286047007.8,N
1505415755.0,286047002.3,N
1505415755.9,286047002.3,N
1505415775.8,286046996.6,N
1505415795.6,286046996.4,N
1505415815.4,286046991.4,N
1505415835.2,286046988.9,N
1505415855.1,286046990.8,N
1505415856.0,286046990.8,N
1505415875.8,286046992.8,N
1505415895.6,286046994.2,N
1505415915.5,286046993.0,N
1505415935.3,286046988.7,N
1505415955.1,286046991.8,N
1505415975.9,286046996.1,N
1505415995.7,286046999.6,N
1505416015.5,286047000.3,N
1505416035.4,286047002.7,N
1505416055.2,286047002.7,N
1505416075.0,286047000.7,N
1505416075.9,286047000.7,N
1505416095.8,286046996.6,N
1505416115.6,286047000.1,N
1505416135.4,286047005.9,N
1505416155.3,286047005.5,N
1505416175.1,286047002.9,N
1505416176.0,286047002.9,N
1505416195.8,286047003.8,N
1505416215.7,286047004.8,N
1505416235.5,286047007.8,N
1505416255.3,286047009.9,N
1505416275.1,286047006.2,N
1505416295.9,286047001.9,N
1505416315.7,286047007.1,N
1505416335.5,286047008.7,N
1505416355.4,286046998.3,N
1505416375.2,286046995.5,N
1505416395.0,286046996.2,N
1505416395.9,286046996.2,N
1505416415.8,286047001.0,N
1505416435.6,286047003.3,N
1505416455.4,286047005.2,N
1505416475.3,286047005.7,N
1505416495.1,286047000.2,N
1505416496.0,286047000.2,N
1505416515.8,286046998.5,N
1505416535.7,286047000.7,N
1505416555.5,286047004.6,N
1505416575.3,286047008.2,N
1505416595.1,286047007.9,N
1505416615.9,286047002.3,N
1505416635.7,286047000.7,N
1505416655.5,286046996.5,N
1505416675.4,286046999.3,N
1505416695.2,286046993.3,N
1505416715.0,286046998.0,N
1505416715.9,286046998.0,N
1505416735.8,286046996.4,N
1505416755.6,286047000.6,N
1505416775.4,286047007.1,N
1505416795.3,286047008.1,N
1505416815.1,286047008.9,N
1505416816.0,286047008.9,N
1505416835.8,286047001.4,N
1505416855.7,286046995.6,N
1505416875.5,286046995.9,N
1505416895.3,286046990.4,N
1505416915.2,286046989.3,N
1505416935.9,286046990.1,N
1505416955.7,286046998.0,N
1505416975.5,286047000.5,N
1505416995.4,286047005.5,N
1505417015.2,286047001.3,N
1505417035.0,286047003.8,N
1505417035.9,286047003.8,N
1505417055.8,286047004.5,N
1505417075.6,286047005.0,N
1505417095.4,286047002.4,N
1505417115.3,286046997.8,N
1505417135.1,286046997.9,N
1505417155.8,286046996.0,N
1505417175.7,286046991.8,N
1505417195.5,286046989.0,N
1505417215.3,286046991.6,N
1505417235.2,286046990.0,N
1505417255.9,286046994.4,N
1505417275.7,286046998.8,N
1505417295.6,286047002.8,N
1505417315.4,286047003.7,N
1505417335.2,286046998.2,N
1505417355.0,286046994.5,N
1505417356.0,286046994.5,N
1505417375.8,286046998.2,N
1505417395.6,286047004.7,N
1505417415.4,286047009.8,N
1505417435.3,286047011.4,N
1505417455.1,286047010.9,N
1505417475.8,286047010.9,N
1505417495.7,286047013.7,N
1505417515.5,286047015.2,N
1505417535.3,286047007.3,N
1505417555.2,286047006.6,N
1505417575.9,286047006.4,N
1505417595.7,286047007.2,N
1505417615.6,286047006.1,N
1505417635.4,286047004.1,N
1505417655.2,286047004.1,N
1505417675.1,286047007.2,N
1505417676.0,286047007.2,N
1505417695.8,286047000.0,N
1505417715.6,286046998.2,N
1505417735.4,286046997.0,N
1505417755.3,286047000.4,N
1505417775.1,286046995.3,N
1505417795.8,286047002.7,N
1505417815.7,286047001.3,N
1505417835.5,286047000.5,N
1505417855.3,286047001.9,N
1505417875.2,286046997.2,N
1505417895.9,286046993.5,N
1505417915.7,286046998.5,N
1505417935.6,286047000.5,N
1505417955.4,286046999.2,N
1505417975.2,286047006.5,N
1505417995.1,286047011.5,N
1505417996.0,286047011.5,N
1505418015.8,286047013.5,N
1505418035.6,286047014.4,N
1505418055.5,286047007.9,N
1505418075.3,286047004.0,N
1505418095.1,286046998.5,N
1505418115.8,286046998.1,N
1505418135.7,286046996.6,N
1505418155.5,286047000.8,N
1505418175.3,286046997.7,N
1505418195.2,286046993.9,N
1505418215.9,286046993.7,N
1505418235.7,286046995.1,N
1505418255.6,286046999.9,N
1505418275.4,286047006.8,N
1505418295.2,286047010.2,N
1505418315.1,286047010.1,N
1505418316.0,286047010.1,N
1505418335.8,286047014.4,N
1505418355.6,286047015.8,N
1505418375.5,286047017.8,N
1505418395.3,286047020.8,N
1505418415.1,286047014.6,N
1505418435.9,286047011.4,N
1505418455.7,286047018.1,N
1505418475.5,286047017.4,N
1505418495.3,286047011.5,N
1505418515.2,286047012.9,N
1505418535.0,286047009.5,N
1505418535.9,286047009.5,N
1505418555.7,286047009.8,N
1505418575.6,286047008.3,N
1505418595.4,286047009.9,N
1505418615.2,286047011.8,N
1505418635.1,286047015.5,N
1505418636.0,286047015.5,N
1505418655.8,286047013.7,N
1505418675.6,286047015.2,N
1505418695.5,286047008.1,N
1505418715.3,286047002.9,N
1505418735.1,286047002.1,N
1505418755.8,286047001.2,N
1505418775.7,286046998.1,N
1505418795.5,286047000.9,N
1505418815.3,286047009.1,N
1505418835.2,286047011.4,N
1505418855.0,286047009.5,N
1505418855.9,286047009.5,N
1505418875.7,286047006.8,N
1505418895.6,286047004.8,N
1505418915.4,286047012.0,N
1505418935.2,286047016.7,P
1505418955.1,286047021.1,P
1505418956.0,286047021.1,P
1505418975.8,286047030.5,P
1505418995.7,286047011.2,N
1505419015.5,286047011.0,N
1505419035.3,286047009.4,N
1505419055.1,286047008.2,N
1505419075.9,286047001.2,N
1505419095.7,286046995.9,N
1505419115.5,286046991.2,N
1505419135.4,286046984.1,N
1505419155.2,286046980.3,N
1505419175.0,286046977.3,N
1505419175.9,286046977.3,N
1505419195.8,286046981.3,N
